Weather observations for the past three days for
San Carlos Airport
Imperial (Metric)
Date Time (pdt) Wind (mph) Vis. (mi.) Weather Sky Cond. Temperature (ºF) Relative Humidity Wind Chill (°F) Heat Index (°F) Pressure Precipitation (in)
Air Dwpt 6 hour altimeter (in) sea level (mb) 1 hr 3 hr 6 hr
Max. Min.
17 19:47 NW 12 10.00 Fair CLR 71.6 55.4 57% 29.99 0.0
17 18:47 NW 14 10.00 Fair CLR 75.2 55.4 50% 78 29.98 0.0
17 17:55 NW 10 10.00 Fair CLR 73.4 55.4 53% 29.99 0.0
17 16:47 NW 9 10.00 Fair CLR 75.2 57.2 54% 78 30 0.0
17 15:47 NW 14 10.00 Fair CLR 75.2 57.2 54% 78 30.01 0.0
17 14:47 NW 13 G 18 10.00 Fair CLR 73.4 57.2 57% 30.03 0.0
17 13:47 NW 12 10.00 Fair CLR 69.8 55.4 60% 30.06 0.0
17 12:47 N 12 10.00 Fair CLR 66.2 57.2 73% 30.07 0.0
17 11:47 N 12 10.00 Fair CLR 64.4 57.2 78% 30.07 0.0
17 10:47 Vrbl 5 10.00 Mostly Cloudy BKN016 62.6 57.2 83% 30.07 0.0
17 08:47 NW 7 10.00 Overcast OVC012 59 51.8 77% 30.08 0.0
17 06:55 NW 7 8.00 Overcast OVC014 57.2 53.6 88% 30.06 0.0
17 06:47 W 7 10.00 Overcast OVC014 57.2 51.8 82% 30.05 0.0
17 06:35 W 7 9.00 Overcast OVC014 57.2 53.6 88% 30.06 0.0
17 06:15 NW 8 9.00 Overcast OVC014 57.2 53.6 88% 30.05 0.0
17 05:55 W 7 10.00 Overcast OVC016 57.2 53.6 88% 30.04 0.0
17 05:35 NW 8 9.00 Overcast OVC016 57.2 53.6 88% 30.04 0.0
17 05:15 W 8 10.00 Overcast OVC016 57.2 53.6 88% 30.04 0.0
17 04:55 W 7 10.00 Overcast OVC016 57.2 53.6 88% 30.04 0.0
17 04:35 W 6 10.00 Overcast OVC016 57.2 53.6 88% 30.03 0.0
17 04:15 NW 5 10.00 Overcast OVC016 57.2 53.6 88% 30.04 0.0
17 03:55 NW 8 9.00 Overcast OVC016 57.2 55.4 94% 30.04 0.0
17 03:35 W 7 9.00 Overcast OVC016 57.2 53.6 88% 30.04 0.0
17 03:15 W 6 10.00 Overcast OVC018 57.2 55.4 94% 30.04 0.0
17 02:55 W 5 10.00 Overcast OVC018 57.2 53.6 88% 30.04 0.0
17 02:35 W 5 9.00 Mostly Cloudy BKN018 57.2 53.6 88% 30.04 0.0
17 02:15 W 8 10.00 A Few Clouds FEW018 57.2 53.6 88% 30.03 0.0
17 01:55 W 7 10.00 Fair CLR 57.2 53.6 88% 30.04 0.0
17 01:35 W 8 10.00 A Few Clouds FEW021 57.2 53.6 88% 30.04 0.0
17 01:15 W 7 10.00 Partly Cloudy SCT021 59 53.6 82% 30.04 0.0
17 00:55 W 8 10.00 Fair CLR 59 53.6 82% 30.05 0.0
17 00:35 NW 7 10.00 Fair CLR 59 51.8 77% 30.04 0.0
17 00:15 NW 7 10.00 Fair CLR 59 51.8 77% 30.04 0.0
16 23:55 NW 6 10.00 Fair CLR 59 51.8 77% 30.04 0.0
16 23:35 NW 8 10.00 Fair CLR 59 51.8 77% 30.04 0.0
16 23:15 NW 8 10.00 Fair CLR 59 53.6 82% 30.04 0.0
16 22:55 NW 8 10.00 Fair CLR 59 53.6 82% 30.04 0.0
16 22:35 NW 12 10.00 Fair CLR 59 53.6 82% 30.03 0.0
16 22:15 NW 10 10.00 Fair CLR 59 53.6 82% 30.03 0.0
16 21:55 W 10 10.00 Fair CLR 59 51.8 77% 30.03 0.0
16 21:35 W 12 G 17 10.00 Fair CLR 59 51.8 77% 30.03 0.0
16 21:15 NW 10 10.00 Fair CLR 60.8 51.8 72% 30.03 0.0
16 20:47 W 18 10.00 Fair CLR 60.8 50 68% 30.03 0.0
16 19:47 W 18 10.00 Fair CLR 62.6 50 64% 30.01 0.0
16 18:47 W 14 G 20 10.00 Fair CLR 66.2 51.8 60% 30 0.0
16 17:47 W 14 G 20 10.00 Fair CLR 68 51.8 56% 30 0.0
16 15:47 W 20 G 26 10.00 Fair CLR 69.8 53.6 57% 30.01 0.0
16 14:47 W 13 G 18 10.00 Fair CLR 71.6 53.6 53% 30.02 0.0
16 13:51 W 14 G 24 10.00 Fair CLR 71.6 53.6 53% 30.02 0.0
16 12:55 NW 9 10.00 Fair CLR 71.6 53.6 53% 30.04 0.0
16 11:47 W 8 10.00 Fair CLR 68 53.6 60% 30.05 0.0
16 10:55 NW 12 10.00 A Few Clouds FEW023 66.2 53.6 64% 30.05 0.0
16 09:47 NW 6 10.00 Mostly Cloudy BKN023 64.4 53.6 68% 30.04 0.0
16 08:47 W 6 10.00 Overcast OVC019 62.6 53.6 73% 30.05 0.0
16 07:47 W 8 10.00 Overcast OVC019 60.8 53.6 77% 30.04 0.0
16 06:55 W 8 10.00 Overcast OVC019 59 53.6 82% 30.04 0.0
16 06:47 W 8 10.00 Overcast OVC019 59 53.6 82% 30.03 0.0
16 06:35 W 7 10.00 Overcast OVC019 59 53.6 82% 30.03 0.0
16 06:15 W 7 10.00 Overcast OVC019 59 53.6 82% 30.03 0.0
16 05:55 W 6 10.00 Overcast OVC019 59 53.6 82% 30.02 0.0
16 05:35 W 7 0.00 Overcast OVC019 59 53.6 82% 30.02 0.0
16 05:15 W 6 0.00 Overcast OVC019 59 53.6 82% 30.02 0.0
16 04:55 W 7 0.00 Overcast OVC019 59 53.6 82% 30.01 0.0
16 04:35 W 6 0.00 Overcast OVC019 59 53.6 82% 30.01 0.0
16 04:15 W 7 0.00 Mostly Cloudy BKN019 59 53.6 82% 30.01 0.0
16 03:55 W 7 0.00 Overcast OVC019 59 53.6 82% 30.01 0.0
16 03:35 W 8 0.00 Overcast OVC019 59 53.6 82% 30.01 0.0
16 03:15 W 7 0.00 Mostly Cloudy BKN019 59 53.6 82% 30 0.0
16 02:55 W 7 0.00 Fair CLR 59 53.6 82% 30 0.0
16 02:35 W 8 0.00 A Few Clouds FEW021 59 53.6 82% 30 0.0
16 02:15 W 5 0.00 A Few Clouds FEW021 59 53.6 82% 30.01 0.0
16 01:55 NW 6 0.00 Fair CLR 59 53.6 82% 30 0.0
16 01:35 W 5 0.00 Fair CLR 59 53.6 82% 30 0.0
16 01:15 NW 6 10.00 Fair CLR 59 53.6 82% 30.01 0.0
16 00:55 NW 7 10.00 Fair CLR 59 51.8 77% 30.01 0.0
16 00:35 NW 7 10.00 Fair CLR 60.8 53.6 77% 30.01 0.0
16 00:15 NW 9 0.00 Fair CLR 59 53.6 82% 30.01 0.0
15 23:55 N 6 0.00 Fair CLR 59 53.6 82% 30.02 0.0
15 23:35 NW 8 0.00 Fair CLR 60.8 53.6 77% 30.01 0.0
15 23:15 NW 7 0.00 Fair CLR 60.8 51.8 72% 30.02 0.0
15 22:55 NW 8 0.00 Fair CLR 62.6 51.8 68% 30.02 0.0
15 22:35 NW 9 0.00 Fair CLR 62.6 51.8 68% 30.02 0.0
15 22:15 NW 8 0.00 Fair CLR 62.6 51.8 68% 30.01 0.0
15 21:55 NW 7 0.00 Fair CLR 62.6 51.8 68% 30.01 0.0
15 21:35 NW 9 0.00 Fair CLR 62.6 51.8 68% 30.01 0.0
15 21:15 NW 9 10.00 Fair CLR 62.6 51.8 68% 30 0.0
15 20:47 NW 9 10.00 Fair CLR 62.6 51.8 68% 30 0.0
15 19:47 W 12 10.00 Fair CLR 64.4 51.8 64% 29.99 0.0
15 18:47 W 14 G 22 10.00 Fair CLR 68 51.8 56% 29.99 0.0
15 15:47 W 13 10.00 Fair CLR 71.6 55.4 57% 30.01 0.0
15 14:47 W 12 10.00 Fair CLR 71.6 55.4 57% 30.03 0.0
15 13:47 NW 7 10.00 Fair CLR 71.6 55.4 57% 30.04 0.0
15 12:47 NW 12 10.00 Fair CLR 68 53.6 60% 30.07 0.0
15 11:50 NW 9 10.00 Partly Cloudy SCT022 68 55.4 64% 30.08 0.0
15 10:47 N 9 10.00 Mostly Cloudy BKN018 66.2 55.4 68% 30.09 0.0
15 09:47 N 5 10.00 Overcast OVC018 62.6 55.4 77% 30.09 0.0
15 08:47 N 6 10.00 Overcast OVC016 62.6 55.4 77% 30.09 0.0
15 07:47 W 7 10.00 Overcast OVC016 59 53.6 82% 30.08 0.0
15 06:55 NW 5 9.00 Overcast OVC014 59 53.6 82% 30.07 0.0
15 06:47 W 5 10.00 Overcast OVC014 59 55.4 88% 30.07 0.0
15 06:35 NW 5 9.00 Overcast OVC014 59 55.4 88% 30.07 0.0
15 06:15 NW 6 8.00 Overcast OVC014 59 55.4 88% 30.07 0.0
15 05:55 NW 5 10.00 Overcast OVC014 59 55.4 88% 30.07 0.0
15 05:35 NW 6 0.00 Overcast OVC014 59 55.4 88% 30.06 0.0
15 05:15 NW 6 0.00 Overcast OVC014 59 55.4 88% 30.06 0.0
15 04:55 NW 5 0.00 Overcast OVC014 59 55.4 88% 30.06 0.0
15 04:35 NW 6 0.00 Overcast OVC014 59 55.4 88% 30.05 0.0
15 04:15 N 3 0.00 Overcast OVC014 60.8 55.4 83% 30.05 0.0
15 03:55 NW 5 0.00 Overcast OVC014 60.8 55.4 83% 30.04 0.0
15 03:35 NW 5 0.00 Overcast OVC014 60.8 55.4 83% 30.05 0.0
15 03:15 NW 6 0.00 Overcast OVC014 59 55.4 88% 30.04 0.0
15 02:55 W 6 9.00 Overcast OVC014 59 55.4 88% 30.04 0.0
15 02:35 W 6 10.00 Overcast OVC014 59 55.4 88% 30.05 0.0
15 02:15 NW 5 10.00 Overcast OVC014 60.8 55.4 83% 30.05 0.0
15 01:55 NW 5 9.00 Overcast OVC014 59 55.4 88% 30.05 0.0
15 01:35 NW 5 9.00 Mostly Cloudy BKN014 59 55.4 88% 30.05 0.0
15 01:15 NW 3 9.00 A Few Clouds FEW014 59 55.4 88% 30.05 0.0
15 00:55 NW 3 9.00 Fair CLR 59 55.4 88% 30.05 0.0
15 00:35 NW 3 9.00 Fair CLR 59 55.4 88% 30.05 0.0
15 00:15 W 5 0.00 NULL NULL 59 55.4 88% 30.05 0.0
14 23:55 W 6 0.00 NULL NULL 59 55.4 88% 30.05 0.0
14 23:35 NW 5 0.00 NULL NULL 59 55.4 88% 30.05 0.0
14 23:15 NW 8 0.00 NULL NULL 59 55.4 88% 30.05 0.0
14 22:55 NW 8 0.00 NULL NULL 59 55.4 88% 30.04 0.0
14 22:35 NW 8 0.00 NULL NULL 59 55.4 88% 30.04 0.0
14 22:15 NW 8 9.00 Fair CLR 60.8 55.4 83% 30.04 0.0
14 21:55 NW 9 10.00 Fair CLR 60.8 55.4 83% 30.04 0.0
14 21:35 NW 8 10.00 Fair CLR 62.6 55.4 77% 30.03 0.0
14 21:15 NW 7 10.00 Fair CLR 62.6 55.4 77% 30.02 0.0
Date Time (pdt) Wind (mph) Vis. (mi.) Weather Sky Cond. Air Dwpt Max. Min. Relative Humidity Wind Chill (°F) Heat Index (°F) altimeter (in) sea level (mb) 1 hr 3 hr 6 hr
6 hour
Temperature (ºF) Pressure Precipitation (in)